Location: The Saddle
(36.8333°N, 80.3417°W)
Time: 21:04:31
(UTC-05:00)

Vanguard 3 - All Passes

Search period start: 22 January 2022 00:00
Search period end: 01 February 2022 00:00
Orbit: 508 x 3260 km, 33.3° (Epoch: 22 January)

Date Brightness Start Highest point End Pass type
(mag) Time Alt. Az. Time Alt. Az. Time Alt. Az.
22 Jan - 09:19:59 10° SSE 09:22:36 11° SSE 09:24:59 10° SE daylight
22 Jan - 11:26:30 10° SSW 11:36:19 29° SSE 11:42:37 10° ESE daylight
22 Jan - 13:40:21 10° WSW 13:48:52 52° S 13:53:53 10° E daylight
22 Jan - 15:54:49 10° W 16:00:26 56° S 16:04:18 10° ESE daylight
22 Jan - 18:08:15 10° WSW 18:11:15 21° SSW 18:14:04 10° SSE visible
23 Jan - 10:11:17 10° SSW 10:21:01 22° SSE 10:27:51 10° ESE daylight
23 Jan - 12:23:53 10° SW 12:34:16 44° SSE 12:40:19 10° E daylight
23 Jan - 14:38:53 10° WSW 14:46:23 62° S 14:50:55 10° E daylight
23 Jan - 16:53:04 10° W 16:57:34 37° SSW 17:01:03 10° SE daylight
24 Jan - 08:57:37 10° S 09:05:19 15° SSE 09:11:29 10° ESE daylight
24 Jan - 11:07:31 10° SW 11:19:14 36° SSE 11:26:24 10° E daylight
24 Jan - 13:22:20 10° WSW 13:32:01 59° S 13:37:30 10° E daylight
24 Jan - 15:37:27 10° W 15:43:44 56° S 15:47:49 10° ESE daylight
24 Jan - 17:51:37 10° WSW 17:54:27 17° SSW 17:57:00 10° SSE daylight
25 Jan - 09:51:42 10° SSW 10:03:44 28° SSE 10:11:50 10° E daylight
25 Jan - 12:05:26 10° SW 12:17:15 51° SSE 12:23:55 10° E daylight
25 Jan - 14:21:10 10° W 14:29:35 65° S 14:34:30 10° E daylight
25 Jan - 16:35:56 10° W 16:40:50 34° SSW 16:44:25 10° SE daylight
26 Jan - 08:37:06 10° S 08:47:53 20° SSE 08:56:05 10° ESE daylight
26 Jan - 10:48:36 10° SW 11:02:01 43° SSE 11:10:01 10° E daylight
26 Jan - 13:04:14 10° WSW 13:15:05 65° S 13:21:04 10° E daylight
26 Jan - 15:19:57 10° W 15:26:59 55° SSW 15:31:20 10° ESE daylight
26 Jan - 17:34:57 10° WSW 17:37:35 15° SSW 17:39:54 10° S daylight
27 Jan - 07:25:27 10° SSE 07:31:44 13° SE 07:37:20 10° ESE daylight
27 Jan - 09:32:18 10° SSW 09:46:20 34° SSE 09:55:33 10° E daylight
27 Jan - 11:46:56 10° WSW 12:00:07 58° SSE 12:07:28 10° E daylight
27 Jan - 14:03:20 10° W 14:12:44 67° S 14:18:03 10° ESE daylight
27 Jan - 16:18:41 10° W 16:24:01 32° SSW 16:27:45 10° SE daylight
28 Jan - 08:17:07 10° SSW 08:30:17 25° SSE 08:40:04 10° E daylight
28 Jan - 10:29:42 10° SW 10:44:41 49° SSE 10:53:32 10° E daylight
28 Jan - 12:46:02 10° WSW 12:58:04 69° S 13:04:36 10° E daylight
28 Jan - 15:02:20 10° W 15:10:09 53° SSW 15:14:50 10° ESE daylight
28 Jan - 17:18:15 10° WSW 17:20:39 13° SW 17:22:44 10° S daylight
29 Jan - 07:04:01 10° S 07:14:02 17° SE 07:22:33 10° ESE visible
29 Jan - 09:13:04 10° SW 09:28:46 40° SSE 09:39:04 10° E daylight
29 Jan - 11:28:24 10° WSW 11:42:53 64° SSE 11:50:56 10° E daylight
29 Jan - 13:45:21 10° W 13:55:48 68° S 14:01:35 10° ESE daylight
29 Jan - 16:01:18 10° W 16:07:08 30° SSW 16:11:05 10° SSE daylight
30 Jan - 07:57:30 10° SSW 08:12:32 30° SSE 08:23:41 10° E daylight
30 Jan - 10:10:52 10° SW 10:27:12 55° SSE 10:36:56 10° E daylight
30 Jan - 12:27:45 10° W 12:40:57 72° S 12:48:06 10° E daylight
30 Jan - 14:44:34 10° W 14:53:14 51° SSW 14:58:18 10° SE daylight
30 Jan - 17:01:33 10° WSW 17:03:38 12° SW 17:05:26 10° SSW daylight
31 Jan - 06:43:41 10° S 06:56:08 21° SE 07:06:42 10° E visible
31 Jan - 08:53:59 10° SW 09:11:03 46° SSE 09:22:24 10° E daylight
31 Jan - 11:09:50 10° WSW 11:25:33 69° S 11:34:21 10° E daylight
31 Jan - 13:27:16 10° W 13:38:48 68° S 13:45:05 10° ESE daylight
31 Jan - 15:43:49 10° W 15:50:09 28° SSW 15:54:22 10° SSE daylight
